�������l�o���
Date,Time,MP-1(��Sv/h),MP-2(��Sv/h),MP-3(��Sv/h),MP-4(��Sv/h),MP-5(��Sv/h),MP-6(��Sv/h),MP-7(��Sv/h),MP-8(��Sv/h),����,����(m/s),���J
2021/01/10,00:00,0.659,0.942,0.602,1.186,0.831,0.375,0.670,0.632,�k��,6.4,��
2021/01/10,00:10,0.658,0.938,0.602,1.185,0.830,0.374,0.669,0.633,���k��,5.9,��
2021/01/10,00:20,0.658,0.942,0.600,1.185,0.829,0.375,0.671,0.633,�k��,5.8,��
2021/01/10,00:30,0.659,0.940,0.601,1.185,0.830,0.374,0.668,0.633,���k��,6.7,��
2021/01/10,00:40,0.659,0.938,0.601,1.184,0.830,0.373,0.668,0.632,���k��,5.7,��
2021/01/10,00:50,0.658,0.939,0.603,1.186,0.830,0.374,0.668,0.632,���k��,5.5,��
2021/01/10,01:00,0.658,0.940,0.602,1.183,0.830,0.377,0.668,0.632,���k��,4.6,��
2021/01/10,01:10,0.660,0.938,0.600,1.183,0.829,0.374,0.668,0.633,���k��,4.9,��
2021/01/10,01:20,0.660,0.940,0.602,1.183,0.829,0.375,0.668,0.631,���k��,5.7,��
2021/01/10,01:30,0.658,0.941,0.603,1.187,0.831,0.374,0.668,0.630,���k��,6.3,��
2021/01/10,01:40,0.659,0.940,0.603,1.186,0.830,0.375,0.667,0.631,���k��,6.8,��
2021/01/10,01:50,0.659,0.942,0.604,1.185,0.829,0.374,0.668,0.632,���k��,6.3,��
2021/01/10,02:00,0.659,0.939,0.602,1.183,0.828,0.373,0.668,0.631,�k��,6.0,��
2021/01/10,02:10,0.658,0.939,0.605,1.183,0.830,0.374,0.671,0.633,�k��,6.6,��
2021/01/10,02:20,0.660,0.938,0.604,1.184,0.829,0.375,0.669,0.632,�k��,6.4,��
2021/01/10,02:30,0.657,0.939,0.602,1.187,0.830,0.374,0.667,0.631,�k��,6.5,��
2021/01/10,02:40,0.662,0.940,0.603,1.183,0.829,0.375,0.667,0.631,�k��,5.8,��
2021/01/10,02:50,0.658,0.939,0.604,1.181,0.829,0.375,0.667,0.632,�k��,6.1,��
2021/01/10,03:00,0.658,0.942,0.602,1.184,0.829,0.376,0.669,0.633,�k��,6.6,��
2021/01/10,03:10,0.658,0.941,0.602,1.186,0.828,0.374,0.669,0.633,�k��,7.3,��
2021/01/10,03:20,0.659,0.939,0.602,1.185,0.827,0.375,0.666,0.630,�k��,7.3,��
2021/01/10,03:30,0.657,0.937,0.602,1.185,0.830,0.374,0.667,0.632,�k��,6.3,��
2021/01/10,03:40,0.659,0.939,0.602,1.185,0.829,0.375,0.666,0.632,���k��,4.2,��
2021/01/10,03:50,0.657,0.939,0.602,1.183,0.827,0.375,0.668,0.633,�k��,4.6,��
2021/01/10,04:00,0.658,0.936,0.602,1.184,0.827,0.374,0.667,0.632,���k��,5.9,��
2021/01/10,04:10,0.658,0.939,0.602,1.185,0.827,0.375,0.668,0.631,���k��,5.2,��
2021/01/10,04:20,0.657,0.937,0.605,1.186,0.828,0.374,0.668,0.633,���k��,5.9,��
2021/01/10,04:30,0.660,0.934,0.601,1.183,0.829,0.374,0.669,0.632,���k��,4.7,��
2021/01/10,04:40,0.658,0.936,0.603,1.185,0.828,0.375,0.668,0.633,��,4.5,��
2021/01/10,04:50,0.658,0.936,0.601,1.183,0.827,0.375,0.669,0.631,��,6.2,��
2021/01/10,05:00,0.657,0.937,0.602,1.183,0.827,0.373,0.668,0.632,��,5.4,��
2021/01/10,05:10,0.659,0.937,0.602,1.183,0.827,0.374,0.667,0.632,��,4.8,��
2021/01/10,05:20,0.659,0.936,0.602,1.185,0.826,0.375,0.668,0.633,��,4.5,��
2021/01/10,05:30,0.657,0.937,0.601,1.182,0.827,0.373,0.669,0.632,���k��,4.8,��
2021/01/10,05:40,0.658,0.937,0.600,1.184,0.829,0.372,0.666,0.632,���k��,3.4,��
2021/01/10,05:50,0.659,0.938,0.602,1.183,0.827,0.375,0.668,0.632,���k��,2.0,��
2021/01/10,06:00,0.658,0.938,0.602,1.182,0.828,0.376,0.667,0.633,���k��,2.6,��
2021/01/10,06:10,0.657,0.935,0.601,1.183,0.827,0.373,0.668,0.632,��,2.9,��
2021/01/10,06:20,0.659,0.938,0.601,1.184,0.827,0.374,0.667,0.632,���k��,1.5,��
2021/01/10,06:30,0.659,0.936,0.601,1.183,0.827,0.375,0.666,0.631,�k��,2.0,��
2021/01/10,06:40,0.655,0.938,0.600,1.187,0.828,0.373,0.666,0.631,�k��,3.0,��
2021/01/10,06:50,0.657,0.937,0.602,1.185,0.826,0.374,0.669,0.632,�k��,5.6,��
2021/01/10,07:00,0.657,0.940,0.603,1.180,0.829,0.374,0.666,0.631,���k��,6.0,��
2021/01/10,07:10,0.657,0.940,0.600,1.184,0.826,0.373,0.667,0.631,���k��,5.5,��
2021/01/10,07:20,0.656,0.936,0.602,1.182,0.825,0.373,0.667,0.632,���k��,4.9,��
2021/01/10,07:30,0.657,0.937,0.600,1.183,0.828,0.373,0.665,0.630,���k��,6.7,��
2021/01/10,07:40,0.657,0.938,0.602,1.184,0.828,0.374,0.667,0.630,���k��,5.4,��
2021/01/10,07:50,0.657,0.936,0.601,1.184,0.828,0.374,0.667,0.631,���k��,4.5,��
2021/01/10,08:00,0.656,0.939,0.603,1.184,0.826,0.372,0.666,0.632,�k��,5.2,��
2021/01/10,08:10,0.659,0.938,0.601,1.184,0.825,0.375,0.666,0.630,�k��,5.4,��
2021/01/10,08:20,0.659,0.939,0.601,1.184,0.828,0.374,0.669,0.632,�k��,4.3,��
2021/01/10,08:30,0.657,0.939,0.601,1.185,0.827,0.377,0.668,0.632,���k��,2.9,��
2021/01/10,08:40,0.659,0.938,0.602,1.182,0.827,0.375,0.669,0.633,�k��,2.0,��
2021/01/10,08:50,0.659,0.940,0.603,1.187,0.826,0.375,0.667,0.633,���k��,1.7,��
2021/01/10,09:00,0.660,0.939,0.602,1.186,0.827,0.375,0.670,0.631,���k��,3.2,��
2021/01/10,09:10,0.659,0.940,0.601,1.185,0.830,0.375,0.669,0.631,��,1.4,��
2021/01/10,09:20,0.661,0.941,0.604,1.184,0.829,0.375,0.669,0.633,���쐼,1.4,��
2021/01/10,09:30,0.661,0.938,0.604,1.184,0.827,0.375,0.667,0.632,��,0.8,��
2021/01/10,09:40,0.660,0.938,0.604,1.184,0.829,0.376,0.668,0.634,��,1.1,��
2021/01/10,09:50,0.660,0.942,0.604,1.186,0.831,0.375,0.670,0.633,�k��,2.0,��
2021/01/10,10:00,0.660,0.940,0.604,1.185,0.832,0.375,0.670,0.633,���k��,4.1,��
2021/01/10,10:10,0.661,0.942,0.604,1.186,0.829,0.374,0.669,0.632,�k��,3.5,��
2021/01/10,10:20,0.661,0.941,0.604,1.185,0.830,0.376,0.666,0.634,���k��,2.9,��
2021/01/10,10:30,0.661,0.943,0.603,1.185,0.828,0.376,0.670,0.632,���k��,4.5,��
2021/01/10,10:40,0.660,0.941,0.605,1.185,0.830,0.376,0.670,0.634,���k��,5.2,��
2021/01/10,10:50,0.660,0.943,0.604,1.186,0.829,0.375,0.669,0.633,�k��,4.9,��
2021/01/10,11:00,0.661,0.942,0.605,1.185,0.832,0.376,0.668,0.631,�k��,4.3,��
2021/01/10,11:10,0.661,0.940,0.604,1.186,0.830,0.375,0.668,0.633,���k��,4.9,��
2021/01/10,11:20,0.661,0.940,0.605,1.187,0.831,0.376,0.668,0.633,��,3.6,��
2021/01/10,11:30,0.661,0.941,0.606,1.186,0.829,0.375,0.669,0.632,��,5.7,��
2021/01/10,11:40,0.661,0.942,0.605,1.187,0.833,0.378,0.669,0.634,���쐼,6.0,��
2021/01/10,11:50,0.662,0.941,0.605,1.188,0.833,0.376,0.671,0.634,��,6.8,��
2021/01/10,12:00,0.662,0.941,0.604,1.186,0.830,0.376,0.670,0.634,���쐼,6.2,��
2021/01/10,12:10,0.662,0.940,0.607,1.187,0.832,0.374,0.671,0.633,��,7.3,��
2021/01/10,12:20,0.661,0.940,0.605,1.188,0.834,0.375,0.671,0.633,��,7.1,��
2021/01/10,12:30,0.663,0.940,0.606,1.189,0.831,0.376,0.670,0.634,��,8.1,��
2021/01/10,12:40,0.661,0.941,0.605,1.187,0.833,0.376,0.672,0.634,��,5.9,��
2021/01/10,12:50,0.662,0.943,0.606,1.190,0.834,0.376,0.671,0.634,��,6.7,��
2021/01/10,13:00,0.663,0.944,0.606,1.189,0.833,0.375,0.671,0.634,��,7.0,��
2021/01/10,13:10,0.662,0.943,0.606,1.191,0.832,0.378,0.670,0.632,��,6.4,��
2021/01/10,13:20,0.662,0.943,0.605,1.188,0.835,0.376,0.670,0.633,���쐼,5.3,��
2021/01/10,13:30,0.662,0.943,0.606,1.189,0.832,0.376,0.671,0.632,��,6.6,��
2021/01/10,13:40,0.663,0.947,0.608,1.186,0.831,0.378,0.670,0.634,��,8.8,��
2021/01/10,13:50,0.663,0.944,0.605,1.190,0.833,0.376,0.670,0.632,��,9.2,��
2021/01/10,14:00,0.661,0.943,0.604,1.188,0.833,0.376,0.671,0.634,���쐼,8.2,��
2021/01/10,14:10,0.663,0.943,0.604,1.190,0.832,0.376,0.671,0.634,��,8.9,��
2021/01/10,14:20,0.663,0.944,0.606,1.188,0.836,0.376,0.671,0.635,��,7.1,��
2021/01/10,14:30,0.663,0.946,0.606,1.190,0.833,0.377,0.671,0.633,��,5.9,��
2021/01/10,14:40,0.664,0.945,0.608,1.189,0.834,0.375,0.671,0.634,��,6.9,��
2021/01/10,14:50,0.662,0.946,0.607,1.190,0.834,0.376,0.671,0.633,��,8.1,��
2021/01/10,15:00,0.665,0.945,0.606,1.193,0.835,0.376,0.672,0.632,��,5.9,��
2021/01/10,15:10,0.664,0.947,0.605,1.191,0.835,0.375,0.670,0.634,���쐼,6.5,��
2021/01/10,15:20,0.663,0.945,0.605,1.191,0.832,0.377,0.672,0.632,���쐼,6.7,��
2021/01/10,15:30,0.663,0.944,0.606,1.189,0.834,0.377,0.671,0.633,��,6.9,��
2021/01/10,15:40,0.663,0.945,0.605,1.190,0.837,0.376,0.669,0.634,���쐼,7.4,��
2021/01/10,15:50,0.663,0.946,0.607,1.191,0.834,0.375,0.671,0.634,��,7.7,��
2021/01/10,16:00,0.663,0.946,0.607,1.191,0.834,0.376,0.672,0.633,���k��,4.6,��
2021/01/10,16:10,0.663,0.946,0.607,1.191,0.833,0.375,0.671,0.632,�k,4.4,��
2021/01/10,16:20,0.661,0.943,0.607,1.190,0.833,0.376,0.670,0.633,�k�k��,4.7,��
2021/01/10,16:30,0.663,0.947,0.606,1.191,0.835,0.376,0.670,0.633,�k�k��,4.5,��
2021/01/10,16:40,0.663,0.946,0.607,1.190,0.837,0.377,0.670,0.633,�k�k��,4.9,��
2021/01/10,16:50,0.662,0.946,0.605,1.190,0.834,0.375,0.670,0.632,�k�k��,5.0,��
2021/01/10,17:00,0.660,0.946,0.605,1.190,0.834,0.375,0.669,0.632,�k�k��,5.5,��
2021/01/10,17:10,0.662,0.946,0.605,1.191,0.834,0.376,0.670,0.633,�k��,5.7,��
2021/01/10,17:20,0.661,0.945,0.606,1.190,0.833,0.376,0.668,0.633,�k��,5.0,��
2021/01/10,17:30,0.662,0.944,0.606,1.192,0.833,0.375,0.671,0.633,�k��,4.1,��
2021/01/10,17:40,0.661,0.945,0.605,1.189,0.835,0.377,0.670,0.633,�k��,4.2,��
2021/01/10,17:50,0.662,0.943,0.606,1.190,0.834,0.375,0.670,0.633,�k��,4.5,��
2021/01/10,18:00,0.660,0.943,0.605,1.192,0.832,0.375,0.669,0.632,���k��,4.6,��
2021/01/10,18:10,0.661,0.944,0.604,1.191,0.834,0.375,0.669,0.634,��,4.9,��
2021/01/10,18:20,0.660,0.943,0.604,1.190,0.833,0.374,0.669,0.632,���k��,4.5,��
2021/01/10,18:30,0.660,0.946,0.606,1.190,0.833,0.374,0.670,0.633,���k��,4.8,��
2021/01/10,18:40,0.660,0.946,0.606,1.191,0.832,0.375,0.670,0.631,���k��,4.4,��
2021/01/10,18:50,0.659,0.944,0.604,1.191,0.835,0.374,0.670,0.632,���k��,4.5,��
2021/01/10,19:00,0.660,0.945,0.606,1.190,0.832,0.375,0.669,0.632,���k��,6.1,��
2021/01/10,19:10,0.661,0.945,0.605,1.190,0.835,0.373,0.669,0.631,���k��,4.4,��
2021/01/10,19:20,0.661,0.946,0.604,1.189,0.833,0.374,0.669,0.633,���k��,5.1,��
2021/01/10,19:30,0.660,0.947,0.604,1.192,0.832,0.373,0.670,0.631,���k��,4.9,��
2021/01/10,19:40,0.661,0.944,0.603,1.187,0.833,0.374,0.669,0.633,���k��,4.8,��
2021/01/10,19:50,0.661,0.945,0.604,1.192,0.833,0.375,0.669,0.632,�k��,4.6,��
2021/01/10,20:00,0.661,0.944,0.604,1.191,0.834,0.375,0.670,0.633,�k��,4.2,��
2021/01/10,20:10,0.659,0.943,0.603,1.190,0.832,0.374,0.669,0.632,�k��,5.0,��
2021/01/10,20:20,0.660,0.943,0.605,1.190,0.833,0.375,0.668,0.632,�k��,5.0,��
2021/01/10,20:30,0.660,0.945,0.606,1.188,0.833,0.375,0.668,0.633,���k��,4.5,��
2021/01/10,20:40,0.660,0.943,0.605,1.190,0.834,0.374,0.668,0.632,���k��,4.8,��
2021/01/10,20:50,0.659,0.945,0.603,1.191,0.832,0.375,0.669,0.634,���k��,6.5,��
2021/01/10,21:00,0.660,0.945,0.603,1.191,0.834,0.375,0.668,0.631,���k��,7.6,��
2021/01/10,21:10,0.659,0.946,0.602,1.189,0.833,0.373,0.669,0.632,���k��,8.7,��
2021/01/10,21:20,0.661,0.944,0.603,1.191,0.832,0.376,0.669,0.632,���k��,8.4,��
2021/01/10,21:30,0.662,0.945,0.602,1.190,0.834,0.374,0.669,0.634,���k��,7.8,��
2021/01/10,21:40,0.663,0.947,0.603,1.190,0.831,0.374,0.668,0.633,���k��,5.7,��
2021/01/10,21:50,0.660,0.943,0.603,1.189,0.834,0.374,0.670,0.633,��,5.2,��
2021/01/10,22:00,0.660,0.945,0.602,1.188,0.832,0.373,0.670,0.631,��,5.6,��
2021/01/10,22:10,0.661,0.944,0.601,1.189,0.833,0.375,0.669,0.632,���k��,5.2,��
2021/01/10,22:20,0.660,0.945,0.605,1.188,0.832,0.375,0.668,0.633,���k��,5.7,��
2021/01/10,22:30,0.660,0.944,0.605,1.189,0.831,0.374,0.668,0.632,���k��,5.9,��
2021/01/10,22:40,0.662,0.945,0.604,1.190,0.831,0.375,0.668,0.632,���k��,5.8,��
2021/01/10,22:50,0.660,0.946,0.606,1.191,0.831,0.375,0.668,0.634,���k��,6.0,��
2021/01/10,23:00,0.660,0.942,0.605,1.190,0.832,0.376,0.669,0.633,��,5.8,��
2021/01/10,23:10,0.659,0.946,0.603,1.186,0.834,0.375,0.668,0.633,���k��,4.1,��
2021/01/10,23:20,0.659,0.942,0.604,1.189,0.833,0.374,0.669,0.633,���k��,2.3,��
2021/01/10,23:30,0.661,0.944,0.604,1.189,0.832,0.375,0.670,0.632,���k��,4.9,��
2021/01/10,23:40,0.660,0.944,0.605,1.189,0.833,0.374,0.667,0.631,��,7.0,��
2021/01/10,23:50,0.661,0.943,0.603,1.189,0.832,0.374,0.669,0.633,��,7.2,��
